Volver al catálogo

THORAD AGENA D DEB

ActivoPO
NORAD 4929·DEBRIS·🇺🇸 United States

Lanzado Apr 8, 1970 desde Vandenberg Space Force Base

Loading…

Próximos Pases (próximas 24 horas)

TLE

ActualizadoSource: Space-Track

Época: Sep 14, 2026, 21:48 UTC

1 04929U 70025FV  26257.90839315  .00000208  00000-0  88147-3 0  9999
2 04929  99.6763 235.3250 0447518 242.8564 140.9181 12.65774729595885

Sigue THORAD AGENA D DEB en tiempo real con AllMySat

Download on the App Store